EWG4M ESSA-EDDH

Flight info

Callsign EWG4M
Flight time N/A
Altitude 36000
Route NOSLI N850 ABAMA DCT GIMRU T503 MICOS N850 BOGMU BOGMU3P
Aircraft A21N/M-SDE2E3FGHIRWXY/LB1

Departure

Time N/A
Airport Stockholm-Arlanda Airport (ESSA)

Arrival

Time 2026-04-24 20:12
Airport Hamburg Helmut Schmidt Airport (EDDH)
Time Latitude Longitude Altitude Speed Heading
2026-04-24 18:54 59.12505 17.32465 23946 ft 397 kts 217°
2026-04-24 18:55 59.07836 17.26513 25115 ft 404 kts 218°
2026-04-24 18:55 59.05610 17.23175 25691 ft 405 kts 223°
2026-04-24 18:55 59.03429 17.19651 26230 ft 409 kts 223°
2026-04-24 18:56 59.01235 17.16083 26767 ft 413 kts 223°
2026-04-24 18:56 58.99019 17.12501 27276 ft 417 kts 223°
2026-04-24 18:56 58.96765 17.08880 27783 ft 421 kts 223°
2026-04-24 18:56 58.94501 17.05253 28270 ft 425 kts 223°
2026-04-24 18:57 58.92222 17.01615 28752 ft 428 kts 223°
2026-04-24 18:57 58.89906 16.97918 29216 ft 432 kts 223°
2026-04-24 18:57 58.87582 16.94196 29673 ft 436 kts 223°
2026-04-24 18:57 58.85235 16.90434 30086 ft 439 kts 223°
2026-04-24 18:58 58.82873 16.86664 30470 ft 442 kts 223°
2026-04-24 18:58 58.80486 16.82872 30858 ft 445 kts 223°
2026-04-24 18:58 58.78090 16.79078 31243 ft 448 kts 224°
2026-04-24 18:58 58.75670 16.75250 31634 ft 451 kts 224°
2026-04-24 18:59 58.73249 16.71432 32083 ft 451 kts 224°
2026-04-24 18:59 58.70818 16.67609 32598 ft 450 kts 224°
2026-04-24 18:59 58.68394 16.63792 33097 ft 449 kts 224°
2026-04-24 18:59 58.65975 16.59983 33599 ft 448 kts 224°
2026-04-24 19:00 58.63563 16.56199 34039 ft 448 kts 224°
2026-04-24 19:00 58.61150 16.52433 34428 ft 447 kts 224°
2026-04-24 19:00 58.58765 16.48714 34806 ft 446 kts 224°
2026-04-24 19:00 58.56330 16.44921 35177 ft 445 kts 224°
2026-04-24 19:01 58.53965 16.41239 35558 ft 444 kts 224°
2026-04-24 19:01 58.51569 16.37515 35831 ft 444 kts 224°
2026-04-24 19:01 58.49172 16.33793 35888 ft 444 kts 224°
2026-04-24 19:02 58.45184 16.27617 35851 ft 443 kts 224°
2026-04-24 19:02 58.39526 16.19081 35844 ft 444 kts 221°
2026-04-24 19:03 58.34570 16.11991 35855 ft 445 kts 221°
2026-04-24 19:03 58.29635 16.04887 35852 ft 445 kts 222°
2026-04-24 19:04 58.24694 15.97779 35846 ft 445 kts 222°
2026-04-24 19:04 58.19798 15.90754 35847 ft 445 kts 222°
2026-04-24 19:05 58.14851 15.83680 35870 ft 445 kts 222°
2026-04-24 19:05 58.09902 15.76625 35883 ft 445 kts 222°
2026-04-24 19:06 58.04949 15.69602 35882 ft 445 kts 222°
2026-04-24 19:06 57.99992 15.62600 35895 ft 445 kts 222°
2026-04-24 19:07 57.95840 15.56742 35893 ft 445 kts 222°
2026-04-24 19:07 57.90872 15.49756 35895 ft 445 kts 222°
2026-04-24 19:08 57.85934 15.42849 35897 ft 445 kts 222°
2026-04-24 19:08 57.80969 15.35908 35897 ft 445 kts 222°
2026-04-24 19:09 57.76004 15.28985 35894 ft 445 kts 222°
2026-04-24 19:09 57.71029 15.22084 35889 ft 444 kts 222°
2026-04-24 19:10 57.66056 15.15223 35899 ft 444 kts 222°
2026-04-24 19:10 57.61077 15.08380 35910 ft 444 kts 222°
2026-04-24 19:11 57.56101 15.01586 35901 ft 443 kts 222°
2026-04-24 19:11 57.51164 14.94858 35899 ft 443 kts 223°
2026-04-24 19:12 57.46163 14.88059 35900 ft 442 kts 223°
2026-04-24 19:12 57.41208 14.81368 35900 ft 442 kts 223°
2026-04-24 19:13 57.37041 14.75717 35900 ft 441 kts 223°
2026-04-24 19:13 57.31268 14.67937 35896 ft 441 kts 223°
2026-04-24 19:14 57.26323 14.61275 35883 ft 440 kts 223°
2026-04-24 19:14 57.21358 14.54628 35880 ft 440 kts 223°
2026-04-24 19:15 57.16391 14.48023 35889 ft 440 kts 223°
2026-04-24 19:15 57.11439 14.41420 35891 ft 439 kts 223°
2026-04-24 19:16 57.04019 14.31595 35897 ft 438 kts 223°
2026-04-24 19:16 56.99099 14.25103 35900 ft 438 kts 223°
2026-04-24 19:17 56.94154 14.18602 35901 ft 437 kts 223°
2026-04-24 19:17 56.89221 14.12116 35915 ft 437 kts 222°
2026-04-24 19:18 56.84259 14.05672 35917 ft 436 kts 222°
2026-04-24 19:18 56.79303 13.99292 35919 ft 435 kts 222°
2026-04-24 19:19 56.74384 13.92880 35927 ft 434 kts 223°
2026-04-24 19:19 56.69452 13.86494 35929 ft 434 kts 223°
2026-04-24 19:20 56.64530 13.80140 35931 ft 434 kts 223°
2026-04-24 19:20 56.59603 13.73808 35949 ft 433 kts 223°
2026-04-24 19:21 56.54676 13.67501 35927 ft 433 kts 222°
2026-04-24 19:21 56.49754 13.61224 35923 ft 432 kts 223°
2026-04-24 19:22 56.44862 13.54998 35931 ft 432 kts 222°
2026-04-24 19:22 56.39937 13.48756 35947 ft 432 kts 223°
2026-04-24 19:23 56.35016 13.42531 35951 ft 432 kts 222°
2026-04-24 19:23 56.30094 13.36327 35950 ft 431 kts 222°
2026-04-24 19:24 56.25174 13.30177 35958 ft 431 kts 222°
2026-04-24 19:24 56.20256 13.24001 35954 ft 431 kts 222°
2026-04-24 19:25 56.15335 13.17867 35957 ft 430 kts 222°
2026-04-24 19:25 56.10425 13.11752 35956 ft 430 kts 221°
2026-04-24 19:26 56.05504 13.05654 35958 ft 430 kts 221°
2026-04-24 19:26 56.00591 12.99575 35964 ft 429 kts 221°
2026-04-24 19:27 55.95703 12.93572 35962 ft 429 kts 221°
2026-04-24 19:27 55.90788 12.87542 35966 ft 428 kts 221°
2026-04-24 19:28 55.85876 12.81516 35974 ft 428 kts 221°
2026-04-24 19:28 55.80958 12.75514 35976 ft 428 kts 221°
2026-04-24 19:29 55.73579 12.66544 35983 ft 428 kts 220°
2026-04-24 19:30 55.68648 12.60608 35987 ft 428 kts 220°
2026-04-24 19:30 55.63764 12.54685 35986 ft 428 kts 220°
2026-04-24 19:31 55.58835 12.48757 35980 ft 428 kts 220°
2026-04-24 19:31 55.53899 12.42841 35985 ft 428 kts 220°
2026-04-24 19:32 55.48874 12.37154 35976 ft 435 kts 210°
2026-04-24 19:32 55.45992 12.35413 35988 ft 443 kts 199°
2026-04-24 19:32 55.42969 12.34280 35995 ft 445 kts 196°
2026-04-24 19:33 55.36861 12.32379 35989 ft 445 kts 195°
2026-04-24 19:33 55.30974 12.29700 35847 ft 431 kts 212°
2026-04-24 19:33 55.28474 12.26948 35579 ft 420 kts 222°
2026-04-24 19:34 55.26171 12.23863 35276 ft 416 kts 223°
2026-04-24 19:34 55.23883 12.20757 34951 ft 413 kts 223°
2026-04-24 19:34 55.21605 12.17697 34618 ft 411 kts 223°
2026-04-24 19:34 55.19335 12.14683 34304 ft 408 kts 223°
2026-04-24 19:35 55.17072 12.11688 33991 ft 405 kts 223°
2026-04-24 19:35 55.14833 12.08720 33634 ft 403 kts 223°
2026-04-24 19:35 55.12608 12.05781 33275 ft 401 kts 223°
2026-04-24 19:35 55.10384 12.02853 32925 ft 399 kts 223°
2026-04-24 19:36 55.08171 11.99943 32597 ft 397 kts 223°
2026-04-24 19:36 55.05975 11.97043 32288 ft 395 kts 223°
2026-04-24 19:36 55.03792 11.94161 31994 ft 393 kts 223°
2026-04-24 19:36 55.01610 11.91288 31701 ft 391 kts 222°
2026-04-24 19:37 54.99431 11.88434 31427 ft 390 kts 222°
2026-04-24 19:37 54.97249 11.85601 31152 ft 399 kts 222°
2026-04-24 19:37 54.94969 11.82621 30892 ft 421 kts 222°
2026-04-24 19:37 54.92568 11.79497 30640 ft 441 kts 221°
2026-04-24 19:38 54.90054 11.76240 30372 ft 454 kts 221°
2026-04-24 19:38 54.87556 11.73014 30054 ft 454 kts 221°
2026-04-24 19:38 54.85020 11.69748 29673 ft 452 kts 221°
2026-04-24 19:38 54.82494 11.66497 29315 ft 451 kts 221°
2026-04-24 19:39 54.79986 11.63263 28993 ft 449 kts 221°
2026-04-24 19:39 54.77480 11.60043 28644 ft 447 kts 221°
2026-04-24 19:39 54.74993 11.56834 28317 ft 445 kts 221°
2026-04-24 19:39 54.72512 11.53639 27986 ft 444 kts 221°
2026-04-24 19:40 54.70030 11.50462 27657 ft 442 kts 221°
2026-04-24 19:40 54.67588 11.47350 27361 ft 441 kts 221°
2026-04-24 19:40 54.65110 11.44184 27041 ft 432 kts 221°
2026-04-24 19:40 54.62730 11.41144 26721 ft 418 kts 221°
2026-04-24 19:41 54.60430 11.38230 26425 ft 404 kts 221°
2026-04-24 19:41 54.58199 11.35395 26130 ft 391 kts 221°
2026-04-24 19:41 54.56041 11.32662 25851 ft 380 kts 221°
2026-04-24 19:41 54.53942 11.30002 25586 ft 369 kts 221°
2026-04-24 19:42 54.51894 11.27421 25337 ft 362 kts 221°
2026-04-24 19:42 54.49859 11.24842 25106 ft 360 kts 221°
2026-04-24 19:42 54.47856 11.22301 24892 ft 359 kts 221°
2026-04-24 19:42 54.45850 11.19762 24671 ft 358 kts 221°
2026-04-24 19:43 54.43851 11.17238 24463 ft 356 kts 221°
2026-04-24 19:43 54.41854 11.14714 24225 ft 355 kts 221°
2026-04-24 19:43 54.39864 11.12210 23815 ft 353 kts 221°
2026-04-24 19:43 54.37887 11.09739 23327 ft 351 kts 220°
2026-04-24 19:44 54.35909 11.07290 22778 ft 349 kts 220°
2026-04-24 19:44 54.33954 11.04860 22246 ft 346 kts 221°
2026-04-24 19:44 54.32015 11.02420 21721 ft 344 kts 221°
2026-04-24 19:44 54.30201 10.99793 21188 ft 336 kts 233°
2026-04-24 19:45 54.28747 10.96711 20705 ft 332 kts 237°
2026-04-24 19:45 54.27353 10.93573 20193 ft 330 kts 238°
2026-04-24 19:45 54.25974 10.90463 19709 ft 328 kts 238°
2026-04-24 19:45 54.24589 10.87369 19218 ft 326 kts 237°
2026-04-24 19:46 54.23224 10.84343 18805 ft 324 kts 237°
2026-04-24 19:46 54.21834 10.81275 18390 ft 321 kts 237°
2026-04-24 19:46 54.20477 10.78258 17939 ft 318 kts 237°
2026-04-24 19:46 54.19138 10.75283 17489 ft 315 kts 237°
2026-04-24 19:47 54.17825 10.72378 17051 ft 313 kts 237°
2026-04-24 19:47 54.16498 10.69450 16609 ft 311 kts 237°
2026-04-24 19:47 54.15174 10.66548 16184 ft 309 kts 237°
2026-04-24 19:47 54.13857 10.63662 15759 ft 307 kts 237°
2026-04-24 19:48 54.12549 10.60792 15378 ft 306 kts 238°
2026-04-24 19:48 54.11246 10.57936 14991 ft 304 kts 238°
2026-04-24 19:48 54.09064 10.53182 14396 ft 303 kts 237°
2026-04-24 19:49 54.06464 10.47591 13662 ft 300 kts 238°
2026-04-24 19:49 54.03896 10.42024 12883 ft 297 kts 238°
2026-04-24 19:50 54.00102 10.33748 11731 ft 294 kts 238°
2026-04-24 19:50 53.98854 10.31015 11366 ft 293 kts 238°
2026-04-24 19:51 53.96368 10.25661 10624 ft 289 kts 242°
2026-04-24 19:51 53.95581 10.22647 10285 ft 275 kts 260°
2026-04-24 19:52 53.94771 10.16512 9824 ft 258 kts 264°
2026-04-24 19:52 53.94406 10.13584 9587 ft 250 kts 264°
2026-04-24 19:52 53.94049 10.10749 9356 ft 240 kts 264°
2026-04-24 19:52 53.93699 10.07991 9141 ft 238 kts 264°
2026-04-24 19:53 53.93357 10.05280 8934 ft 238 kts 264°
2026-04-24 19:53 53.93015 10.02539 8729 ft 237 kts 264°
2026-04-24 19:53 53.92336 9.97076 8292 ft 236 kts 264°
2026-04-24 19:54 53.92000 9.94355 8051 ft 235 kts 264°
2026-04-24 19:54 53.91669 9.91651 7802 ft 234 kts 264°
2026-04-24 19:54 53.91342 9.88952 7548 ft 234 kts 264°
2026-04-24 19:54 53.91017 9.86242 7306 ft 233 kts 264°
2026-04-24 19:55 53.90799 9.84421 7169 ft 233 kts 264°
2026-04-24 19:55 53.90374 9.80847 7118 ft 233 kts 264°
2026-04-24 19:55 53.90054 9.78155 7132 ft 233 kts 264°
2026-04-24 19:55 53.89731 9.75457 7140 ft 234 kts 264°
2026-04-24 19:56 53.89412 9.72764 7151 ft 234 kts 264°
2026-04-24 19:56 53.89202 9.70052 7143 ft 228 kts 279°
2026-04-24 19:56 53.89703 9.67589 7141 ft 221 kts 307°
2026-04-24 19:56 53.90858 9.65940 7157 ft 219 kts 335°
2026-04-24 19:57 53.92365 9.65535 7152 ft 225 kts
2026-04-24 19:57 53.93844 9.66498 7113 ft 235 kts 31°
2026-04-24 19:57 53.94908 9.68617 7059 ft 247 kts 58°
2026-04-24 19:57 53.95300 9.71494 7020 ft 258 kts 86°
2026-04-24 19:58 53.95142 9.74589 7022 ft 261 kts 93°
2026-04-24 19:58 53.94894 9.77642 6932 ft 261 kts 94°
2026-04-24 19:58 53.94641 9.80640 6685 ft 259 kts 94°
2026-04-24 19:58 53.94388 9.83673 6354 ft 258 kts 94°
2026-04-24 19:59 53.94138 9.86675 6056 ft 257 kts 94°
2026-04-24 19:59 53.93886 9.89674 5784 ft 256 kts 94°
2026-04-24 19:59 53.93633 9.92663 5533 ft 255 kts 94°
2026-04-24 19:59 53.93381 9.95633 5322 ft 254 kts 94°
2026-04-24 20:00 53.93131 9.98595 5150 ft 253 kts 94°
2026-04-24 20:00 53.92883 10.01560 4992 ft 253 kts 94°
2026-04-24 20:00 53.92632 10.04521 4851 ft 253 kts 94°
2026-04-24 20:00 53.92375 10.07476 4710 ft 252 kts 94°
2026-04-24 20:01 53.92114 10.10406 4584 ft 251 kts 94°
2026-04-24 20:01 53.91853 10.13335 4455 ft 251 kts 94°
2026-04-24 20:01 53.91595 10.16250 4325 ft 250 kts 94°
2026-04-24 20:01 53.91334 10.19160 4194 ft 250 kts 94°
2026-04-24 20:02 53.91158 10.21092 4106 ft 250 kts 94°
2026-04-24 20:02 53.90774 10.24979 3958 ft 250 kts 96°
2026-04-24 20:02 53.90766 10.27855 3938 ft 240 kts 69°
2026-04-24 20:02 53.91407 10.30399 3965 ft 233 kts 55°
2026-04-24 20:03 53.92186 10.32807 3971 ft 233 kts 54°
2026-04-24 20:03 53.92971 10.35180 3974 ft 233 kts 54°
2026-04-24 20:03 53.93561 10.37763 3962 ft 243 kts 77°
2026-04-24 20:03 53.93394 10.40661 3964 ft 253 kts 105°
2026-04-24 20:04 53.92452 10.43197 3973 ft 259 kts 135°
2026-04-24 20:04 53.90928 10.44800 3973 ft 260 kts 163°
2026-04-24 20:04 53.89159 10.45106 3966 ft 254 kts 192°
2026-04-24 20:04 53.87465 10.44357 3983 ft 250 kts 203°
2026-04-24 20:05 53.85823 10.43411 3982 ft 248 kts 206°
2026-04-24 20:05 53.84366 10.41958 3973 ft 241 kts 225°
2026-04-24 20:05 53.83172 10.40011 3964 ft 237 kts 236°
2026-04-24 20:05 53.82171 10.37798 3974 ft 236 kts 237°
2026-04-24 20:06 53.81141 10.35684 3972 ft 234 kts 237°
2026-04-24 20:06 53.80141 10.33640 3963 ft 217 kts 237°
2026-04-24 20:06 53.79173 10.31657 3962 ft 215 kts 237°
2026-04-24 20:06 53.78223 10.29715 3985 ft 215 kts 237°
2026-04-24 20:07 53.77593 10.28428 3997 ft 215 kts 237°
2026-04-24 20:07 53.76332 10.25859 3938 ft 209 kts 237°
2026-04-24 20:07 53.75429 10.24018 3805 ft 194 kts 238°
2026-04-24 20:07 53.74594 10.22315 3591 ft 186 kts 238°
2026-04-24 20:08 53.73780 10.20655 3336 ft 182 kts 238°
2026-04-24 20:08 53.72973 10.19007 3071 ft 183 kts 238°
2026-04-24 20:08 53.72164 10.17361 2812 ft 181 kts 238°
2026-04-24 20:08 53.71362 10.15729 2566 ft 179 kts 238°
2026-04-24 20:09 53.70575 10.14128 2309 ft 176 kts 237°
2026-04-24 20:09 53.69803 10.12558 2066 ft 171 kts 237°
2026-04-24 20:09 53.69050 10.11027 1825 ft 166 kts 237°
2026-04-24 20:09 53.68347 10.09598 1618 ft 152 kts 238°
2026-04-24 20:10 53.67718 10.08322 1401 ft 131 kts 238°
2026-04-24 20:10 53.67133 10.07166 1176 ft 128 kts 238°
2026-04-24 20:10 53.66569 10.06003 1035 ft 128 kts 239°
2026-04-24 20:10 53.66010 10.04858 893 ft 125 kts 237°
2026-04-24 20:11 53.65457 10.03736 689 ft 124 kts 237°
2026-04-24 20:11 53.64908 10.02608 500 ft 125 kts 236°
2026-04-24 20:11 53.64357 10.01490 332 ft 124 kts 236°
2026-04-24 20:11 53.63810 10.00386 171 ft 122 kts 235°
2026-04-24 20:12 53.63267 9.99311 56 ft 115 kts 235°
2026-04-24 20:12 53.62818 9.98378 49 ft 81 kts 232°
2026-04-24 20:12 53.62573 9.97886 46 ft 31 kts 230°
2026-04-24 20:12 53.62493 9.97778 46 ft 11 kts 161°
2026-04-24 20:13 53.62434 9.97856 50 ft 6 kts 115°
2026-04-24 20:13 53.62433 9.97951 52 ft 10 kts 80°
2026-04-24 20:13 53.62457 9.98073 51 ft 12 kts 63°
2026-04-24 20:13 53.62516 9.98199 52 ft 15 kts 50°
2026-04-24 20:14 53.62588 9.98345 52 ft 17 kts 51°
2026-04-24 20:14 53.62670 9.98510 52 ft 19 kts 50°
2026-04-24 20:14 53.62761 9.98697 52 ft 22 kts 50°
2026-04-24 20:14 53.62863 9.98901 52 ft 24 kts 51°
2026-04-24 20:15 53.62969 9.99120 52 ft 23 kts 50°
2026-04-24 20:15 53.63047 9.99276 52 ft 16 kts 53°
2026-04-24 20:15 53.63083 9.99361 52 ft 4 kts 55°
2026-04-24 20:15 53.63084 9.99364 52 ft 0 kts 55°
2026-04-24 20:17 53.63086 9.99369 52 ft 1 kts 55°
2026-04-24 20:17 53.63096 9.99395 52 ft 4 kts 57°
2026-04-24 20:18 53.63110 9.99429 51 ft 7 kts 56°
2026-04-24 20:18 53.63160 9.99546 52 ft 12 kts 50°
2026-04-24 20:18 53.63208 9.99641 53 ft 4 kts 50°
2026-04-24 20:18 53.63227 9.99700 54 ft 8 kts 81°
2026-04-24 20:19 53.63191 9.99787 54 ft 12 kts 150°
2026-04-24 20:19 53.63111 9.99857 54 ft 14 kts 153°
2026-04-24 20:19 53.63016 9.99941 54 ft 17 kts 153°
2026-04-24 20:19 53.62921 10.00023 52 ft 11 kts 154°
2026-04-24 20:20 53.62852 10.00064 54 ft 9 kts 152°
2026-04-24 20:20 53.62792 10.00117 54 ft 10 kts 154°
2026-04-24 20:20 53.62792 10.00193 54 ft 4 kts 57°
2026-04-24 20:20 53.62805 10.00232 52 ft 4 kts 63°
2026-04-24 20:21 53.62807 10.00241 53 ft 0 kts 64°